Regional Weather Roundup
Issued by NWS

Home | Current Version | Previous Version | Graphics & Text | Print | Product List | Glossary On
Versions: 1 2 3 4 5 6 7 8 9 10 11 12 13 14 15 16 17 18 19 20 21 22 23 24 25 26 27 28 29 30 31 32 33 34 35 36 37 38 39 40 41 42 43 44 45 46 47 48 49 50
000
ASUS43 KMKX 060700
RWRWI

WISCONSIN REGIONAL WEATHER ROUNDUP
NATIONAL WEATHER SERVICE MILWAUKEE/SULLIVAN WI
200 AM CDT FRI MAY 06 2016

NOTE: "FAIR" INDICATES FEW OR NO CLOUDS BELOW 12,000 FEET WITH NO
SIGNIFICANT WEATHER AND/OR OBSTRUCTIONS TO VISIBILITY.

WIZ001-002-006>008-014>016-023>028-060800-
NORTHWEST WISCONSIN

CITY           SKY/WX    TMP DP  RH WIND       PRES   REMARKS
SUPERIOR ARPT  CLEAR     49  39  69 N3        29.78R
ASHLAND        CLEAR     61  40  45 SW8       29.78F
HAYWARD        PTCLDY    50  42  74 CALM      29.83F
SIREN          CLEAR     66  41  40 W9G16     29.83S
CUMBERLAND     CLEAR     50  37  62 CALM      29.85S
RICE LAKE      CLEAR     52  42  69 CALM      29.86F
CHETEK         CLEAR     51  45  79 CALM      29.85F
LADYSMITH      CLEAR     53  40  60 SE3       29.88S
EAU CLAIRE     NOT AVBL
MENOMONIE      CLEAR     54  40  61 E3        29.86S
NEW RICHMOND   CLEAR     58  40  51 SW5       29.86F
OSCEOLA        CLEAR     55  43  63 CALM      29.88S
$$

WIZ003>005-009-010-017-018-060800-
NORTH CENTRAL WISCONSIN

CITY           SKY/WX    TMP DP  RH WIND       PRES   REMARKS
MANITOWISH WTR CLEAR     51  38  62 S5        29.87F
ARBOR VITAE    CLEAR     53  39  58 S3        29.88F
WOODRUFF       CLEAR     53  39  58 S3        29.88F
RHINELANDER    CLEAR     53  37  54 SW5       29.89F
EAGLE RIVER    CLEAR     46  35  64 SW5       29.88F
LAND O LAKES   CLEAR     47  38  71 CALM      29.89S
PHILLIPS       CLEAR     53  38  55 S5        29.86F
TOMAHAWK       CLEAR     45  39  80 CALM      29.90F
MEDFORD        CLEAR     50  40  68 S7        29.89F
MERRILL        CLEAR     42  40  92 CALM      29.91S
$$

WIZ029-030-035-036-043>047-060800-
CENTRAL WISCONSIN

CITY           SKY/WX    TMP DP  RH WIND       PRES   REMARKS
WAUSAU         CLEAR     53  41  63 S5        29.89F
MOSINEE        CLEAR     52  39  62 S7        29.92F
MARSHFIELD     CLEAR     51  39  63 S5        29.90F
STEVENS POINT  CLEAR     44  37  77 CALM      29.93S
WAUPACA        CLEAR     49  39  68 CALM      29.93S
WAUTOMA        NOT AVBL
WISC RAPIDS    CLEAR     47  38  71 SW6       29.92F
CAMP DOUGLAS   NOT AVBL
$$

WIZ011>013-019>022-031-037>040-048>050-060800-
NORTHEAST WISCONSIN

CITY           SKY/WX    TMP DP  RH WIND       PRES   REMARKS
ANTIGO         CLEAR     49  39  67 CALM      29.91F
SHAWANO        MOCLDY    54  37  52 CALM      29.90F
OCONTO         CLOUDY    48  43  84 SW3       29.89F
STURGEON BAY   MOCLDY    48  39  71 S8        29.93S
GREEN BAY      CLOUDY    50  42  74 SW3       29.91F
MANITOWOC      NOT AVBL
APPLETON       CLEAR     50  34  53 CALM      29.90S
CLINTONVILLE   CLEAR     50  36  57 CALM      29.91S
OSHKOSH        PTCLDY    50  36  58 S5        29.92F
$$

WIZ032>034-041-042-053>061-060800-
SOUTHWEST WISCONSIN

CITY           SKY/WX    TMP DP  RH WIND       PRES   REMARKS
LA CROSSE      PTCLDY    57  45  64 E8        29.91F
SPARTA         MOCLDY    47  42  81 W5        29.92F HAZE
VIROQUA        PTCLDY    55  38  52 SW7       29.94F
BOSCOBEL       MOCLDY    48  43  82 NE3       29.95F
PRAIRIE DU CHI CLEAR     50  42  73 CALM      29.95F
PLATTEVILLE    MOCLDY    53  39  60 S7        29.97F
$$

WIZ056-057-062-063-064-067-068-060800-
SOUTH CENTRAL WISCONSIN

CITY           SKY/WX    TMP DP  RH WIND       PRES   REMARKS
REEDSBURG      CLEAR     48  41  75 CALM      29.94S
BARABOO/DELLS  PTCLDY    48  38  67 CALM      29.94F
LONE ROCK      NOT AVBL
MINERAL POINT  PTCLDY    54  36  50 SE6       29.97S
MADISON        CLOUDY    47  38  71 CALM      29.95F
MIDDLETON      CLOUDY    46  41  84 CALM      29.96F
WATERTOWN      CLOUDY    42  42 100 CALM      29.95F
MONROE         CLEAR     54  34  47 SW9       29.97S
JANESVILLE     CLOUDY    45  43  93 CALM      29.97S
$$

WIZ051-052-058>065-066-070>072-060800-
SOUTHEAST WISCONSIN

CITY           SKY/WX    TMP DP  RH WIND       PRES   REMARKS
MILWAUKEE      PTCLDY    48  36  63 SW7       29.95F
WAUKESHA       PTCLDY    45  37  76 SW6       29.97F
MILWAUKEE/TIMM PTCLDY    45  36  70 CALM      29.97F
RACINE         CLEAR     45  35  68 SW5       29.97F
BURLINGTON     CLEAR     38  38  99 CALM      29.97S
KENOSHA        CLEAR     43  36  76 S6        29.96F
FOND DU LAC    MOCLDY    48  40  73 SW3       29.93F
SHEBOYGAN      MOCLDY    46  40  79 CALM      29.94S
WEST BEND      PTCLDY    45  37  76 CALM      29.95S
JUNEAU         PTCLDY    46  39  78 SE3       29.96S
$$

LSZ147-162-060800-
LAKE SUPERIOR

STATION/POSITION TIME  TEMP    WIND        PRES    WAVE
                       AIR SEA DIR/SP/G            HT/PER
                 (UTC) (F)     (DEG/KT/KT) (MB)    (FT/S)
W MID LAKE BUOY  0550   45 37  180/ 12/ 12 1008.6F
DEVILS ISLAND    0600   52     240/  2/  3 1008.3F
PORT WING        0500   44      50/  6/ 21 1008.8
SAXON HARBOR     0600   64     180/ 10/ 17 1008.1
$$

LMZ867-665-643>646-060800-
LAKE MICHIGAN

STATION/POSITION TIME  TEMP    WIND        PRES    WAVE
                       AIR SEA DIR/SP/G            HT/PER
                 (UTC) (F)     (DEG/KT/KT) (MB)    (FT/S)
CHAMBERS ISLAND  0600   51     180/  7/ 11 1012.5F
N MID LAKE BUOY  0550   40 39  190/  8/  8 1013.1F   0
NORTHPORT PIER   0600   50     170/  5/ 11 1012.5S
ALGOMA LAKESHORE 0615          220/  9/ 11   N/A
KEWAUNEE LAKESHO 0600   49     160/  5/  7 1012.3F
SHEBOYGAN LAKESH 0600   48     210/  9/  9 1014.4F
PORT WASHINGTON  0600   46     270/  2/  4 1015.2
S MID LAKE BUOY  0550   41 40  240/  6/  8 1015.2S   1/ 5
KENOSHA   LAKESH 0600   48     240/  5/  6 1015.2S
$$

TC  - TEMPERATURE IN CELSIUS
VSB - VISIBILITY IN STATUTE MILES
WCI - WIND CHILL INDEX
HX  - HEAT INDEX





USA.gov is the U.S. government's official web portal to all federal, state and local government web resources and services.